Location: Asheville, NC
(35.6000°N, 82.5500°W)
Time: 18:28:42
(UTC-04:00)

N. Korean satellite - Pass Details

Date: 12 March 2018
Orbit: 459 x 511 km, 97.2° (Epoch: 19 June)

Event Time Altitude Azimuth Distance (km) Brightness Sun altitude
Rises 20:04:26 0° 194° (SSW) 2,509 10.4 -6.8°
Reaches altitude 10° 20:06:44 10° 209° (SSW) 1,646 9.6 -7.2°
Maximum altitude 20:09:38 24° 264° (W) 1,049 9.4 -7.8°
Drops below altitude 10° 20:12:37 10° 320° (NW) 1,682 10.0 -8.4°
Sets 20:15:00 0° 334° (NNW) 2,580 10.7 -8.9°
